Location: *
(30.4476°N, 114.3798°E)
Time: 03:46:31
(UTC+00:00)

Cosmos 1269 Rocket - Pass Details

Date: 09 April 2020
Orbit: 772 x 779 km, 74.1° (Epoch: 31 May)

Event Time Altitude Azimuth Distance (km) Brightness Sun altitude
Rises 20:13:02 0° 342° (NNW) 3,264 7.4 -23.0°
Reaches altitude 10° 20:15:25 10° 342° (NNW) 2,333 6.6 -22.5°
Maximum altitude 20:20:43 81° 255° (WSW) 791 3.9 -21.5°
Drops below altitude 10° 20:26:00 10° 169° (S) 2,319 6.4 -20.5°
Sets 20:28:22 0° 168° (SSE) 3,242 7.1 -20.0°
